Location: Ferchesar
(52.6477°N, 12.4298°E)
Time: 16:14:11
(UTC+01:00)

Explorer 7 - Pass Details

Date: 10 December 2021
Orbit: 483 x 674 km, 50.3° (Epoch: 23 January)

Event Time Altitude Azimuth Distance (km) Brightness Sun altitude
Rises 04:57:59 0° 243° (WSW) 2,879 - -27.8°
Reaches altitude 10° 05:00:23 10° 238° (WSW) 1,942 - -27.4°
Maximum altitude 05:04:40 49° 164° (SSE) 745 - -26.8°
Exits shadow 05:05:16 45° 136° (SE) 781 7.8 -26.7°
Drops below altitude 10° 05:08:42 10° 89° (E) 1,828 10.5 -26.2°
Sets 05:10:55 0° 84° (E) 2,690 11.6 -25.8°
